Flag for Israel Weather past 2 weeks in Rishon LeZion, Israel

Now
84 °F

Sunny.


Feels Like: 83 °F
Forecast: 70 / 85 °F
Wind: 5 mph from Northwest

Location: Ben Gurion International Airport

Current Time: Apr 27, 2015 at 12:27:16 PM

Latest Report: Apr 27, 2015 at 11:50 AM


Visibility: 10 mi

Pressure: 29.92 "Hg

Humidity: 35%

Dew point: 54 °F

Location of Rishon LeZionLocation

Historic Weather in Rishon LeZion — Graph

°F

Rishon LeZion temperature yesterday

Maximum temperature yesterday: 79 °F (at 1:50 PM)
Minimum temperature yesterday: 54 °F (at 3:50 AM)
Average temperature yesterday: 67 °F

Past Weeks' High & Low Weather Summary

 TemperatureHumidityPressure
High90 °F (Apr 20, 1:20 PM)94% (Apr 12, 2:20 PM)30.30 "Hg (Apr 12, 2:20 PM)
Low46 °F (Apr 12, 1:50 PM)12% (Apr 20, 3:50 PM)29.83 "Hg (Apr 15, 1:20 PM)
Average64 °F63%30.06 "Hg
* Reported Apr 12 11:20 AM — Apr 27 11:20 AM, Rishon LeZion, Weather by CustomWeather, © 2015

Note: Actual official high and low records may vary slightly from our data, if they occured in-between our weather recording intervals... More about our weather records

Advertising

Rishon LeZion weather history for previous 24 hours

 ConditionsComfort  
Time TempWeatherWind HumidityBarometerVisibility
11:20 AM
Mon, Apr 27
82 °FSunny.2 mph35%29.92 "Hg10 mi
10:50 AM81 °FSunny.1 mph34%29.92 "Hg10 mi
10:20 AM77 °FSunny.1 mph36%29.92 "Hg10 mi
9:50 AM75 °FSunny.1 mph44%29.92 "Hg10 mi
9:20 AM73 °FSunny.2 mph50%29.92 "Hg10 mi
8:50 AM68 °FSunny.1 mph56%29.92 "Hg10 mi
8:20 AM66 °FSunny.2 mph56%29.92 "Hg10 mi
7:50 AM64 °FSunny.2 mph60%29.92 "Hg10 mi
7:20 AM61 °FSunny.1 mph68%29.92 "Hg10 mi
6:20 AM57 °FClear.1 mph72%29.89 "Hg10 mi
5:50 AM57 °FClear.1 mph72%29.89 "Hg10 mi
5:20 AM57 °FClear.2 mph72%29.89 "Hg10 mi
4:50 AM55 °FClear.1 mph77%29.89 "Hg10 mi
4:20 AM57 °FClear.2 mph72%29.89 "Hg10 mi
3:50 AM59 °FClear.3 mph68%29.89 "Hg10 mi
3:20 AM61 °FClear.5 mph68%29.92 "Hg10 mi
2:50 AM61 °FClear.3 mph68%29.92 "Hg10 mi
2:20 AM61 °FClear.3 mph68%29.92 "Hg10 mi
1:50 AM61 °FClear.2 mph68%29.92 "Hg10 mi
1:20 AM61 °FClear.2 mph68%29.92 "Hg10 mi
12:50 AM61 °FClear.2 mph68%29.92 "Hg10 mi
12:20 AM63 °FClear.6 mph59%29.92 "Hg10 mi
11:50 PM
Sun, Apr 26
63 °FClear.1 mph59%29.95 "Hg10 mi
11:20 PM63 °FClear.1 mph59%29.95 "Hg10 mi
10:50 PM63 °FClear.3 mph59%29.95 "Hg10 mi
10:20 PM64 °FClear.1 mph56%29.95 "Hg10 mi
9:50 PM68 °FClear.1 mph49%29.95 "Hg10 mi
9:20 PM68 °FClear.3 mph49%29.95 "Hg10 mi
8:50 PM68 °FClear.2 mph53%29.95 "Hg10 mi
8:20 PM72 °FClear.1 mph44%29.95 "Hg10 mi
7:50 PM72 °FSunny.5 mph41%29.95 "Hg10 mi
7:20 PM72 °FSunny.6 mph41%29.95 "Hg10 mi
6:50 PM73 °FSunny.7 mph38%29.95 "Hg10 mi
6:20 PM73 °FSunny.8 mph47%29.95 "Hg10 mi
5:50 PM75 °FSunny.10 mph44%29.92 "Hg10 mi
5:20 PM77 °FSunny.10 mph39%29.92 "Hg10 mi
4:50 PM77 °FSunny.8 mph39%29.92 "Hg10 mi
4:20 PM77 °FSunny.12 mph42%29.92 "Hg10 mi
3:50 PM75 °FSunny.13 mph54%29.92 "Hg10 mi
3:20 PM75 °FSunny.13 mph54%29.92 "Hg10 mi
2:50 PM77 °FSunny.12 mph54%29.95 "Hg10 mi
2:20 PM79 °FSunny.7 mph48%29.95 "Hg10 mi
1:50 PM79 °FPassing clouds.5 mph48%29.95 "HgN/A
1:20 PM77 °FSunny.5 mph51%29.98 "Hg10 mi
12:50 PM75 °FPassing clouds.7 mph54%29.98 "HgN/A
12:20 PM75 °FPassing clouds.9 mph57%29.98 "HgN/A
Weather by CustomWeather, © 2015

See weather overviewHow to use our weather pages